Overview Statistics Trail Chart Weather Telemetry Raw packets
 

This is the latest recevied weather packets stored in our database for station/object K8RRT. If no packets are shown the sender has not sent any weather packets the latest 10 day(s).

<< 70 71 72 73 74 75 76 >>
Time Temp. Humidity Pressure Rain* Wind** Luminosity Snow
1788111251 30.56° C 69% 1016.7 hPa 0 mm - 713 W/m² -
1788110947 30.56° C 72% 1017 hPa 0 mm - 675 W/m² -
1788110643 30.56° C 72% 1017.2 hPa 0 mm - 688 W/m² -
1788110338 30.56° C 72% 1017 hPa 0 mm - 726 W/m² -
1788110034 30.56° C 72% 1017 hPa 0 mm - 767 W/m² -
1788109729 30.56° C 72% 1017.1 hPa 0 mm - 722 W/m² -
1788109428 30.56° C 72% 1017.1 hPa 0 mm - 698 W/m² -
1788109126 30.56° C 73% 1016.9 hPa 0 mm - 739 W/m² -
1788108823 30.56° C 73% 1017.3 hPa 0 mm - 728 W/m² -
1788108519 30.56° C 75% 1017.1 hPa 0 mm - 754 W/m² -
1788108214 30° C 73% 1017.2 hPa 0 mm - 429 W/m² -
1788107911 29.44° C 74% 1017.4 hPa 0 mm - 331 W/m² -
1788107606 30° C 74% 1017.4 hPa 0 mm - 281 W/m² -
1788107301 30° C 74% 1017.3 hPa 0 mm - 823 W/m² -
1788106998 30° C 73% 1017.2 hPa 0 mm - 619 W/m² -
1788106698 30° C 73% 1017.4 hPa 0 mm - 517 W/m² -
1788106397 30° C 73% 1017.5 hPa 0 mm - 736 W/m² -
1788106093 30° C 75% 1017.4 hPa 0 mm - 690 W/m² -
1788105799 30° C 73% 1017.5 hPa 0 mm - 757 W/m² -
1788105483 29.44° C 75% 1017.5 hPa 0 mm - 762 W/m² -
1788105180 29.44° C 74% 1017.7 hPa 0 mm - 772 W/m² -
1788104880 29.44° C 76% 1017.5 hPa 0 mm - 769 W/m² -
1788104575 29.44° C 75% 1017.5 hPa 0 mm - 796 W/m² -
1788104272 29.44° C 74% 1017.6 hPa 0 mm - 791 W/m² -
1788103967 29.44° C 78% 1017.3 hPa 0 mm - 792 W/m² -

* Rain latest hour (hover to see other rain measurements)
** Current wind speed in m/s (hover to see current wind gust speed)